CZ-6A DEB

Satellite information

Favourite Embed

Satellite Type and Status

DEBRISIN ORBIT

Key statistics

Satellite CZ-6A DEB at a glance.

Uptime

970

Days in orbit

Revolutions

≈ 15.2

Per day

Orbit

SSO

Sun Synchronous Orbit

Inclination

98.7

Latest

Satellite identification and parameters

Extended collection of information and parameters for CZ-6A DEB.

Object identification

Identified? True

Debris? True

Object name: CZ-6A DEB

International designator: 2022-151YX

Object number (NORAD): 55549

Object ID (CCSDS): 55549

Country: PEOPLES REPUBLIC OF CHINA (PRC)

Current information (Y/N): Y

RCS size: SMALL

Orbital parameters

Period: 94.884 minutes

Inclination: 98.7015 deg

SMA: 6891.113 km

Apoapsis: 528.616 km

Periapsis: 497.34 km

RAAN: 250.1676 deg

Eccentricy: 0.0022693

Argument of periapsis: 147.1635 deg

Mean anomaly: 213.101 deg

Mean motion: 15.17639897 rev/day

Mean motion (dot): 0.00187705 rev/day2

B* drag term: 0.0090459 1/REarth

Two-line elements (TLE)

Creation date: July 7, 2025, 5:18 a.m.

Reference frame: TEME

Reference center: EARTH

Epoch: July 6, 2025, 4:49 p.m. UTC

TLE line 0: 0 CZ-6A DEB

TLE line 1: 1 55549U 22151YX 25187.70083446 .00187705 00000-0 90459-2 0 9991

TLE line 2: 2 55549 98.7015 250.1676 0022693 147.1635 213.1010 15.17639897135111

Live tracking on map

Real-time ground track for satellite CZ-6A DEB.

In-orbit conjunctions

A list of the most updated potential collisions computed for object CZ-6A DEB.

Target Orbit TCA Probability of collision Miss distance Type
SL-16 DEB LEO 2025-01-18 13:39:25 0.0001139961 93.0 (m) DEBRIS

Associated space launch

Chinese satellite reported for atmospheric/ocean/environmental/spatial parameter research purposes, details TBD.

CZ-6A DEB was lifted into orbit during the mission ‘Long March 6A | Yunhai 3’, on board a Long March 6A space rocket.

The launch took place on Nov. 11, 2022, 10:52 p.m. from Launch Complex 9A.

For more information about the launch, click the button.

Launch to space Long March 6A | Yunhai 3
Long March 6A | Yunhai 3

Agency: N/A

Status: Launch Successful

Launch date: Nov. 11, 2022, 10:52 p.m. UTC

Rocket: Long March 6A

Launch pad: Launch Complex 9A

Location: Taiyuan Satellite Launch Center, People's Republic of China

...

Latest news about this satellite

There are no fresh news available about this satellite. Check back as we update our databases every day.


Newsletter sign-up

Weekly statistics, charts and insights to help you stay on top of the space industry.